Time,TemperatureF,DewpointF,PressureIn,WindDirection,WindDirectionDegrees,WindSpeedMPH,WindSpeedGustMPH,Humidity,HourlyPrecipIn,Conditions,Clouds,dailyrainin,SoftwareType,DateUTC
2013-01-16 07:35:00,38.1,34.6,28.76,South,177,0.0,0.0,87,0.00,,-RA,1.34,VWS V14.01,2013-01-16 12:35:00,
2013-01-16 07:36:00,38.1,34.6,28.76,South,177,0.0,0.0,87,0.00,,-RA,0.00,VWS V14.01,2013-01-16 12:36:00,
2013-01-16 07:37:00,38.1,34.6,28.76,South,177,0.0,0.0,87,0.00,,-RA,0.00,VWS V14.01,2013-01-16 12:37:00,
2013-01-16 07:42:00,38.1,34.6,28.76,South,177,0.0,0.0,87,0.00,,-RA,0.00,VWS V14.01,2013-01-16 12:42:00,
2013-01-16 07:47:00,38.1,34.6,28.76,South,177,0.0,0.0,87,0.00,,-RA,0.00,VWS V14.01,2013-01-16 12:47:00,
2013-01-16 07:52:00,38.1,34.6,28.76,South,177,0.0,0.0,87,0.00,,-RA,0.00,VWS V14.01,2013-01-16 12:52:00,
2013-01-16 07:57:00,38.1,34.6,28.76,South,177,0.0,0.0,87,0.00,,-RA,0.00,VWS V14.01,2013-01-16 12:57:00,
2013-01-16 08:02:00,38.3,34.8,28.76,South,177,0.0,0.0,87,0.00,,-RA,0.00,VWS V14.01,2013-01-16 13:02:00,
2013-01-16 08:07:00,38.1,34.6,28.76,South,177,0.0,0.0,87,0.00,,-RA,0.00,VWS V14.01,2013-01-16 13:07:00,
2013-01-16 08:12:00,38.3,34.8,28.76,South,177,0.0,0.0,87,0.00,,-RA,0.00,VWS V14.01,2013-01-16 13:12:00,
2013-01-16 08:17:00,38.3,35.1,28.79,South,177,0.0,0.0,88,0.00,,-RA,0.00,VWS V14.01,2013-01-16 13:17:00,
2013-01-16 08:22:00,38.3,35.1,28.79,South,177,0.0,0.0,88,0.00,,-RA,0.00,VWS V14.01,2013-01-16 13:22:00,
2013-01-16 08:27:00,38.3,35.1,28.79,South,177,0.0,0.0,88,0.04,,-RA,0.04,VWS V14.01,2013-01-16 13:27:00,
2013-01-16 08:32:00,38.5,35.2,28.79,South,177,0.0,0.0,88,0.04,,-RA,0.04,VWS V14.01,2013-01-16 13:32:00,
2013-01-16 08:37:00,38.7,35.4,28.79,South,177,0.0,0.0,88,0.04,,-RA,0.04,VWS V14.01,2013-01-16 13:37:00,
2013-01-16 08:42:00,38.7,35.4,28.79,South,177,0.0,2.2,88,0.04,,-RA,0.04,VWS V14.01,2013-01-16 13:42:00,
2013-01-16 08:48:00,38.5,35.2,28.79,South,177,0.0,0.0,88,0.04,,-RA,0.04,VWS V14.01,2013-01-16 13:48:00,
2013-01-16 08:53:00,38.5,35.2,28.79,South,177,0.0,0.0,88,0.08,,-RA,0.08,VWS V14.01,2013-01-16 13:53:00,
2013-01-16 08:58:00,38.7,35.4,28.79,South,177,0.0,0.0,88,0.08,,-RA,0.08,VWS V14.01,2013-01-16 13:58:00,
2013-01-16 09:03:00,38.8,35.6,28.79,South,177,0.0,0.0,88,0.08,,-RA,0.08,VWS V14.01,2013-01-16 14:03:00,
2013-01-16 09:08:00,39.0,35.8,28.79,South,177,0.0,0.0,88,0.08,,-RA,0.08,VWS V14.01,2013-01-16 14:08:00,
2013-01-16 09:13:00,39.2,36.0,28.79,South,177,0.0,0.0,88,0.08,,-RA,0.08,VWS V14.01,2013-01-16 14:13:00,
2013-01-16 09:18:00,39.2,36.0,28.82,South,177,0.0,0.0,88,0.08,,-RA,0.08,VWS V14.01,2013-01-16 14:18:00,
2013-01-16 09:23:00,39.0,35.8,28.82,South,177,0.0,0.0,88,0.08,,-RA,0.08,VWS V14.01,2013-01-16 14:23:00,
2013-01-16 09:28:00,39.2,35.7,28.82,South,177,0.0,0.0,87,0.08,,-RA,0.08,VWS V14.01,2013-01-16 14:28:00,
2013-01-16 09:33:00,39.2,35.7,28.79,South,176,0.0,0.0,87,0.04,,-RA,0.08,VWS V14.01,2013-01-16 14:33:00,
2013-01-16 09:38:00,39.2,35.7,28.79,South,177,0.0,0.0,87,0.08,,-RA,0.12,VWS V14.01,2013-01-16 14:38:00,
2013-01-16 09:43:00,39.4,35.8,28.79,South,177,0.0,0.0,87,0.08,,-RA,0.12,VWS V14.01,2013-01-16 14:43:00,
2013-01-16 09:48:00,39.4,35.8,28.79,South,177,0.0,0.0,87,0.08,,-RA,0.12,VWS V14.01,2013-01-16 14:48:00,
2013-01-16 09:53:00,39.7,36.2,28.79,South,177,0.0,0.0,87,0.04,,-RA,0.12,VWS V14.01,2013-01-16 14:53:00,
2013-01-16 09:58:00,39.6,36.0,28.79,South,177,0.0,0.0,87,0.04,,-RA,0.12,VWS V14.01,2013-01-16 14:58:00,
2013-01-16 10:03:00,39.6,36.0,28.79,South,177,0.0,0.0,87,0.04,,-RA,0.12,VWS V14.01,2013-01-16 15:03:00,
2013-01-16 10:08:00,39.6,36.0,28.79,South,177,0.0,0.0,87,0.04,,-RA,0.12,VWS V14.01,2013-01-16 15:08:00,
2013-01-16 10:13:00,39.7,36.2,28.79,South,177,0.0,0.0,87,0.04,,-RA,0.12,VWS V14.01,2013-01-16 15:13:00,
2013-01-16 10:18:00,39.9,36.4,28.79,South,177,0.0,0.0,87,0.04,,-RA,0.12,VWS V14.01,2013-01-16 15:18:00,
2013-01-16 10:23:00,40.3,36.7,28.79,South,177,2.2,2.2,87,0.04,,-RA,0.12,VWS V14.01,2013-01-16 15:23:00,
2013-01-16 10:28:00,40.1,36.3,28.79,South,176,0.0,0.0,86,0.04,,-RA,0.12,VWS V14.01,2013-01-16 15:28:00,
2013-01-16 10:34:00,39.9,35.8,28.79,South,177,0.0,0.0,85,0.04,,OVC043,0.12,VWS V14.01,2013-01-16 15:34:00,
2013-01-16 10:39:00,39.7,35.3,28.79,South,177,0.0,0.0,84,0.00,,OVC043,0.12,VWS V14.01,2013-01-16 15:39:00,
2013-01-16 10:44:00,39.9,35.8,28.79,South,177,0.0,0.0,85,0.00,,OVC043,0.12,VWS V14.01,2013-01-16 15:44:00,
2013-01-16 10:49:00,40.1,36.0,28.79,South,177,0.0,0.0,85,0.00,,OVC043,0.12,VWS V14.01,2013-01-16 15:49:00,
2013-01-16 10:54:00,40.1,36.0,28.79,South,177,0.0,0.0,85,0.00,,OVC043,0.12,VWS V14.01,2013-01-16 15:54:00,
2013-01-16 10:59:00,40.3,35.8,28.79,SSE,158,0.0,0.0,84,0.00,,OVC043,0.12,VWS V14.01,2013-01-16 15:59:00,
2013-01-16 11:04:00,40.6,36.2,28.76,South,190,2.2,2.2,84,0.00,,OVC075,0.12,VWS V14.01,2013-01-16 16:04:00,
2013-01-16 11:09:00,40.6,35.9,28.76,SW,231,0.0,0.0,83,0.00,,OVC075,0.12,VWS V14.01,2013-01-16 16:09:00,
2013-01-16 11:14:00,41.0,35.9,28.76,SW,231,0.0,0.0,82,0.00,,OVC075,0.12,VWS V14.01,2013-01-16 16:14:00,
2013-01-16 11:19:00,41.0,35.3,28.76,SW,231,0.0,0.0,80,0.00,,OVC075,0.12,VWS V14.01,2013-01-16 16:19:00,
2013-01-16 11:24:00,41.2,35.2,28.76,SW,231,0.0,0.0,79,0.00,,OVC075,0.12,VWS V14.01,2013-01-16 16:24:00,
2013-01-16 11:29:00,41.4,34.7,28.76,SW,231,0.0,0.0,77,0.00,,OVC075,0.12,VWS V14.01,2013-01-16 16:29:00,
2013-01-16 11:34:00,41.5,34.5,28.73,SW,231,0.0,0.0,76,0.00,,OVC080,0.12,VWS V14.01,2013-01-16 16:34:00,
2013-01-16 11:39:00,41.7,34.4,28.73,SW,231,0.0,0.0,75,0.00,,OVC080,0.12,VWS V14.01,2013-01-16 16:39:00,
2013-01-16 11:44:00,41.9,34.6,28.73,SW,231,0.0,0.0,75,0.00,,OVC080,0.12,VWS V14.01,2013-01-16 16:44:00,
2013-01-16 11:49:00,41.9,33.9,28.73,East,98,0.0,0.0,73,0.00,,OVC080,0.12,VWS V14.01,2013-01-16 16:49:00,
2013-01-16 11:54:00,41.7,33.0,28.73,East,98,0.0,0.0,71,0.00,,OVC080,0.12,VWS V14.01,2013-01-16 16:54:00,
2013-01-16 11:59:00,41.7,32.7,28.73,East,98,0.0,0.0,70,0.00,,OVC080,0.12,VWS V14.01,2013-01-16 16:59:00,
2013-01-16 12:04:00,41.7,32.7,28.73,East,98,0.0,0.0,70,0.00,,OVC012,0.12,VWS V14.01,2013-01-16 17:04:00,
2013-01-16 12:09:00,41.7,33.0,28.73,East,98,0.0,0.0,71,0.00,,OVC012,0.12,VWS V14.01,2013-01-16 17:09:00,
2013-01-16 12:14:00,41.5,32.8,28.73,East,98,0.0,0.0,71,0.00,,OVC012,0.12,VWS V14.01,2013-01-16 17:14:00,
2013-01-16 12:19:00,41.5,33.2,28.70,NE,35,2.2,2.2,72,0.00,,OVC012,0.12,VWS V14.01,2013-01-16 17:19:00,
2013-01-16 12:24:00,41.9,33.9,28.70,NE,56,0.0,0.0,73,0.00,,OVC012,0.12,VWS V14.01,2013-01-16 17:24:00,
2013-01-16 12:29:00,41.9,33.9,28.70,NE,56,0.0,0.0,73,0.00,,OVC012,0.12,VWS V14.01,2013-01-16 17:29:00,
2013-01-16 12:34:00,41.9,33.5,28.70,NE,56,0.0,0.0,72,0.00,,OVC012,0.12,VWS V14.01,2013-01-16 17:34:00,
2013-01-16 12:39:00,42.3,34.2,28.70,NE,56,0.0,0.0,73,0.00,,OVC012,0.12,VWS V14.01,2013-01-16 17:39:00,
2013-01-16 12:44:00,42.4,34.4,28.70,ESE,118,0.0,0.0,73,0.00,,OVC012,0.12,VWS V14.01,2013-01-16 17:44:00,
2013-01-16 12:50:00,42.4,34.1,28.70,ESE,118,0.0,0.0,72,0.00,,OVC012,0.12,VWS V14.01,2013-01-16 17:50:00,
2013-01-16 12:54:00,43.0,34.9,28.70,ESE,118,0.0,0.0,73,0.00,,OVC080,0.12,VWS V14.01,2013-01-16 17:54:00,
2013-01-16 13:00:00,43.2,34.4,28.70,ESE,113,0.0,0.0,71,0.00,,OVC080,0.12,VWS V14.01,2013-01-16 18:00:00,
2013-01-16 13:05:00,43.5,34.8,28.70,ESE,113,0.0,0.0,71,0.00,,OVC080,0.12,VWS V14.01,2013-01-16 18:05:00,
2013-01-16 13:10:00,43.5,34.0,28.70,NE,44,0.0,0.0,69,0.00,,OVC080,0.12,VWS V14.01,2013-01-16 18:10:00,
2013-01-16 13:15:00,43.5,33.7,28.70,NNE,25,0.0,0.0,68,0.00,,OVC080,0.12,VWS V14.01,2013-01-16 18:15:00,
2013-01-16 13:20:00,43.5,33.7,28.70,East,80,0.0,0.0,68,0.00,,OVC080,0.12,VWS V14.01,2013-01-16 18:20:00,
2013-01-16 13:25:00,44.2,34.4,28.70,East,80,0.0,0.0,68,0.00,,OVC080,0.12,VWS V14.01,2013-01-16 18:25:00,
2013-01-16 13:30:00,44.4,34.5,28.67,ESE,120,2.2,2.2,68,0.00,,OVC080,0.12,VWS V14.01,2013-01-16 18:30:00,
2013-01-16 13:35:00,44.4,33.8,28.67,ESE,121,0.0,0.0,66,0.00,,OVC080,0.12,VWS V14.01,2013-01-16 18:35:00,
2013-01-16 13:40:00,44.6,32.8,28.67,ESE,121,0.0,0.0,63,0.00,,OVC080,0.12,VWS V14.01,2013-01-16 18:40:00,
2013-01-16 13:45:00,45.0,33.1,28.67,South,171,0.0,2.2,63,0.00,,OVC080,0.12,VWS V14.01,2013-01-16 18:45:00,
2013-01-16 13:51:00,45.3,33.5,28.67,SSW,205,2.7,2.7,63,0.00,,OVC080,0.12,VWS V14.01,2013-01-16 18:51:00,
2013-01-16 13:56:00,45.7,33.8,28.67,SSW,205,0.0,0.0,63,0.00,,OVC080,0.12,VWS V14.01,2013-01-16 18:56:00,
2013-01-16 14:01:00,45.7,32.6,28.67,SSW,205,0.0,0.0,60,0.00,,OVC080,0.12,VWS V14.01,2013-01-16 19:01:00,
2013-01-16 14:06:00,45.5,32.0,28.67,SSW,204,0.0,0.0,59,0.00,,OVC085,0.12,VWS V14.01,2013-01-16 19:06:00,
2013-01-16 14:11:00,45.5,32.4,28.67,SSW,204,0.0,0.0,60,0.00,,OVC085,0.12,VWS V14.01,2013-01-16 19:11:00,
2013-01-16 14:16:00,45.7,32.6,28.67,SSW,205,0.0,0.0,60,0.00,,OVC085,0.12,VWS V14.01,2013-01-16 19:16:00,
2013-01-16 14:21:00,45.7,32.2,28.67,SSW,205,0.0,0.0,59,0.00,,OVC085,0.12,VWS V14.01,2013-01-16 19:21:00,
2013-01-16 14:26:00,45.7,33.0,28.67,SSW,205,0.0,0.0,61,0.00,,OVC085,0.12,VWS V14.01,2013-01-16 19:26:00,
2013-01-16 14:31:00,46.0,33.8,28.67,SSW,205,0.0,0.0,62,0.00,,OVC085,0.12,VWS V14.01,2013-01-16 19:31:00,
2013-01-16 14:36:00,46.4,33.3,28.67,SSW,204,0.0,0.0,60,0.00,,OVC085,0.12,VWS V14.01,2013-01-16 19:36:00,
2013-01-16 14:41:00,47.1,31.8,28.67,North,353,0.0,0.0,55,0.00,,OVC085,0.12,VWS V14.01,2013-01-16 19:41:00,
2013-01-16 14:47:00,47.3,32.4,28.70,WSW,258,0.0,0.0,56,0.00,,OVC085,0.12,VWS V14.01,2013-01-16 19:47:00,
2013-01-16 14:52:00,47.5,32.1,28.70,WSW,258,2.2,2.2,55,0.00,,OVC085,0.12,VWS V14.01,2013-01-16 19:52:00,
2013-01-16 14:57:00,47.5,32.1,28.70,WSW,258,0.0,0.0,55,0.00,,OVC085,0.12,VWS V14.01,2013-01-16 19:57:00,
2013-01-16 15:02:00,47.8,32.5,28.70,WSW,258,0.0,0.0,55,0.00,,OVC090,0.12,VWS V14.01,2013-01-16 20:02:00,
2013-01-16 15:07:00,47.8,31.5,28.70,ENE,59,0.0,2.2,53,0.00,,OVC090,0.12,VWS V14.01,2013-01-16 20:07:00,
2013-01-16 15:12:00,48.0,31.7,28.70,ENE,64,0.0,0.0,53,0.00,,OVC090,0.12,VWS V14.01,2013-01-16 20:12:00,
2013-01-16 15:17:00,48.0,31.7,28.67,NE,49,0.0,0.0,53,0.00,,OVC090,0.12,VWS V14.01,2013-01-16 20:17:00,
2013-01-16 15:22:00,48.4,32.5,28.67,East,90,0.0,0.0,54,0.00,,OVC090,0.12,VWS V14.01,2013-01-16 20:22:00,
2013-01-16 15:27:00,48.6,32.2,28.67,ESE,105,0.0,0.0,53,0.00,,OVC090,0.12,VWS V14.01,2013-01-16 20:27:00,
2013-01-16 15:32:00,48.7,31.9,28.70,ESE,105,0.0,0.0,52,0.00,,OVC090,0.12,VWS V14.01,2013-01-16 20:32:00,
2013-01-16 15:37:00,48.7,32.8,28.70,ESE,105,0.0,0.0,54,0.00,,OVC090,0.12,VWS V14.01,2013-01-16 20:37:00,
2013-01-16 15:42:00,48.7,32.4,28.70,ESE,105,0.0,0.0,53,0.00,,OVC090,0.12,VWS V14.01,2013-01-16 20:42:00,
2013-01-16 15:48:00,48.7,32.4,28.67,SSW,195,2.7,2.7,53,0.00,,OVC090,0.12,VWS V14.01,2013-01-16 20:48:00,
2013-01-16 15:53:00,48.7,33.3,28.67,South,188,0.0,0.0,55,0.00,,OVC090,0.12,VWS V14.01,2013-01-16 20:53:00,
2013-01-16 15:58:00,48.9,33.5,28.67,South,170,0.0,0.0,55,0.00,,OVC090,0.12,VWS V14.01,2013-01-16 20:58:00,
2013-01-16 16:03:00,48.7,32.8,28.67,SSW,201,0.0,0.0,54,0.00,,BKN100,0.12,VWS V14.01,2013-01-16 21:03:00,
2013-01-16 16:08:00,48.7,33.3,28.67,SW,217,4.0,4.0,55,0.00,,BKN100,0.12,VWS V14.01,2013-01-16 21:08:00,
2013-01-16 16:13:00,48.7,33.3,28.67,SSW,213,3.1,3.1,55,0.00,,BKN100,0.12,VWS V14.01,2013-01-16 21:13:00,
2013-01-16 16:18:00,48.7,34.2,28.67,West,265,3.1,3.1,57,0.00,,BKN100,0.12,VWS V14.01,2013-01-16 21:18:00,
2013-01-16 16:23:00,48.7,34.2,28.67,West,265,0.0,0.0,57,0.00,,BKN100,0.12,VWS V14.01,2013-01-16 21:23:00,
2013-01-16 16:29:00,48.9,34.8,28.67,West,265,0.0,0.0,58,0.00,,BKN100,0.12,VWS V14.01,2013-01-16 21:29:00,
2013-01-16 16:34:00,48.9,34.4,28.67,West,265,0.0,0.0,57,0.00,,BKN100,0.12,VWS V14.01,2013-01-16 21:34:00,
2013-01-16 16:39:00,48.9,33.9,28.67,West,265,0.0,0.0,56,0.00,,BKN100,0.12,VWS V14.01,2013-01-16 21:39:00,
2013-01-16 16:44:00,48.9,35.2,28.67,West,265,0.0,0.0,59,0.00,,BKN100,0.12,VWS V14.01,2013-01-16 21:44:00,
2013-01-16 16:49:00,48.9,34.4,28.67,West,265,0.0,0.0,57,0.00,,BKN100,0.12,VWS V14.01,2013-01-16 21:49:00,
2013-01-16 16:54:00,48.7,34.6,28.67,West,265,0.0,2.2,58,0.00,,BKN100,0.12,VWS V14.01,2013-01-16 21:54:00,
2013-01-16 16:59:00,48.4,34.3,28.67,ENE,68,0.0,0.0,58,0.00,,BKN100,0.12,VWS V14.01,2013-01-16 21:59:00,
2013-01-16 17:04:00,48.2,35.0,28.67,NNE,17,3.1,3.1,60,0.00,,BKN095,0.12,VWS V14.01,2013-01-16 22:04:00,
2013-01-16 17:09:00,47.8,34.6,28.67,NE,34,0.0,2.7,60,0.00,,BKN095,0.12,VWS V14.01,2013-01-16 22:09:00,
2013-01-16 17:14:00,47.7,34.9,28.67,NE,34,0.0,0.0,61,0.00,,BKN095,0.12,VWS V14.01,2013-01-16 22:14:00,
2013-01-16 17:19:00,47.5,35.5,28.67,NE,34,0.0,0.0,63,0.00,,BKN095,0.12,VWS V14.01,2013-01-16 22:19:00,
2013-01-16 17:24:00,47.3,35.8,28.67,North,357,0.0,0.0,64,0.00,,BKN095,0.12,VWS V14.01,2013-01-16 22:24:00,
2013-01-16 17:29:00,47.1,35.2,28.67,ENE,73,0.0,0.0,63,0.00,,BKN095,0.12,VWS V14.01,2013-01-16 22:29:00,
2013-01-16 17:34:00,46.9,35.0,28.70,ENE,73,0.0,0.0,63,0.00,,BKN095,0.12,VWS V14.01,2013-01-16 22:34:00,
2013-01-16 17:39:00,46.9,35.8,28.70,ENE,73,0.0,0.0,65,0.00,,BKN095,0.12,VWS V14.01,2013-01-16 22:39:00,
2013-01-16 17:44:00,46.9,35.8,28.70,ENE,73,0.0,0.0,65,0.00,,BKN095,0.12,VWS V14.01,2013-01-16 22:44:00,
2013-01-16 17:49:00,46.9,36.2,28.67,ENE,73,0.0,0.0,66,0.00,,BKN095,0.12,VWS V14.01,2013-01-16 22:49:00,
2013-01-16 17:54:00,46.8,36.4,28.67,ENE,73,0.0,0.0,67,0.00,,BKN095,0.12,VWS V14.01,2013-01-16 22:54:00,
2013-01-16 17:59:00,46.8,36.4,28.67,NE,54,0.0,0.0,67,0.00,,BKN095,0.12,VWS V14.01,2013-01-16 22:59:00,
2013-01-16 18:04:00,46.6,36.2,28.70,NE,34,0.0,0.0,67,0.00,,OVC090,0.12,VWS V14.01,2013-01-16 23:04:00,
2013-01-16 18:09:00,46.6,36.2,28.70,NNE,13,0.0,2.2,67,0.00,,OVC090,0.12,VWS V14.01,2013-01-16 23:09:00,
2013-01-16 18:15:00,46.4,36.0,28.70,North,1,0.0,0.0,67,0.00,,OVC090,0.12,VWS V14.01,2013-01-16 23:15:00,
2013-01-16 18:20:00,46.4,36.4,28.70,North,1,0.0,0.0,68,0.00,,OVC090,0.12,VWS V14.01,2013-01-16 23:20:00,
2013-01-16 18:25:00,46.2,36.3,28.70,North,0,0.0,0.0,68,0.00,,OVC090,0.12,VWS V14.01,2013-01-16 23:25:00,
2013-01-16 18:30:00,46.2,36.3,28.70,North,1,0.0,0.0,68,0.00,,OVC090,0.12,VWS V14.01,2013-01-16 23:30:00,
2013-01-16 18:35:00,46.2,36.3,28.70,North,357,0.0,0.0,68,0.00,,OVC090,0.12,VWS V14.01,2013-01-16 23:35:00,
2013-01-16 18:40:00,46.2,36.6,28.70,North,1,0.0,0.0,69,0.00,,OVC090,0.12,VWS V14.01,2013-01-16 23:40:00,
2013-01-16 18:45:00,46.2,36.6,28.70,North,1,0.0,0.0,69,0.00,,OVC090,0.12,VWS V14.01,2013-01-16 23:45:00,
2013-01-16 18:50:00,46.2,36.6,28.70,North,357,0.0,0.0,69,0.00,,OVC090,0.12,VWS V14.01,2013-01-16 23:50:00,
2013-01-16 18:55:00,46.2,36.6,28.70,North,1,0.0,0.0,69,0.00,,OVC090,0.12,VWS V14.01,2013-01-16 23:55:00,
2013-01-16 19:00:00,46.4,36.8,28.73,North,1,0.0,0.0,69,0.00,,OVC090,0.12,VWS V14.01,2013-01-17 00:00:00,
2013-01-16 19:05:00,46.4,37.2,28.73,North,0,0.0,0.0,70,0.00,,OVC090,0.12,VWS V14.01,2013-01-17 00:05:00,
2013-01-16 19:10:00,46.4,37.2,28.73,North,1,0.0,0.0,70,0.00,,OVC090,0.12,VWS V14.01,2013-01-17 00:10:00,
2013-01-16 19:16:00,46.4,37.2,28.73,North,0,0.0,0.0,70,0.00,,OVC090,0.12,VWS V14.01,2013-01-17 00:16:00,
2013-01-16 19:21:00,46.4,37.5,28.73,North,0,0.0,0.0,71,0.00,,OVC090,0.12,VWS V14.01,2013-01-17 00:21:00,
2013-01-16 19:26:00,46.6,37.7,28.73,North,1,0.0,0.0,71,0.00,,OVC090,0.12,VWS V14.01,2013-01-17 00:26:00,
2013-01-16 19:31:00,46.6,37.7,28.73,North,2,0.0,0.0,71,0.00,,OVC090,0.12,VWS V14.01,2013-01-17 00:31:00,
2013-01-16 19:36:00,46.6,38.0,28.73,North,357,0.0,0.0,72,0.00,,OVC090,0.12,VWS V14.01,2013-01-17 00:36:00,
2013-01-16 19:41:00,46.6,38.8,28.73,North,357,0.0,0.0,74,0.00,,OVC090,0.12,VWS V14.01,2013-01-17 00:41:00,
2013-01-16 19:46:00,46.4,38.9,28.73,North,357,0.0,0.0,75,0.00,,OVC090,1.34,VWS V14.01,2013-01-17 00:46:00,
2013-01-16 19:51:00,46.2,39.1,28.73,North,0,0.0,0.0,76,0.00,,OVC090,0.12,VWS V14.01,2013-01-17 00:51:00,
2013-01-16 19:56:00,46.2,39.4,28.73,North,353,0.0,0.0,77,0.00,,OVC090,0.12,VWS V14.01,2013-01-17 00:56:00,
2013-01-16 20:01:00,46.2,39.4,28.73,SW,215,0.0,0.0,77,0.00,,-RA,0.12,VWS V14.01,2013-01-17 01:01:00,
2013-01-16 20:06:00,46.2,39.8,28.73,SSE,151,0.0,0.0,78,0.00,,-RA,0.12,VWS V14.01,2013-01-17 01:06:00,
2013-01-16 20:11:00,46.2,39.8,28.73,SSE,151,0.0,0.0,78,0.00,,-RA,0.12,VWS V14.01,2013-01-17 01:11:00,
2013-01-16 20:16:00,46.2,39.8,28.73,SSE,151,0.0,0.0,78,0.00,,-RA,0.12,VWS V14.01,2013-01-17 01:16:00,
2013-01-16 20:22:00,46.2,40.1,28.73,SSE,151,0.0,0.0,79,0.00,,-RA,0.12,VWS V14.01,2013-01-17 01:22:00,
2013-01-16 20:27:00,46.2,40.1,28.73,SSE,151,0.0,0.0,79,0.00,,-RA,0.12,VWS V14.01,2013-01-17 01:27:00,
2013-01-16 20:32:00,46.2,40.4,28.73,SSE,151,0.0,0.0,80,0.00,,-RA,0.12,VWS V14.01,2013-01-17 01:32:00,
2013-01-16 20:37:00,46.4,40.9,28.73,SSE,151,0.0,0.0,81,0.00,,-RA,0.12,VWS V14.01,2013-01-17 01:37:00,
2013-01-16 20:42:00,46.4,41.2,28.73,SSE,151,0.0,0.0,82,0.00,,-RA,0.12,VWS V14.01,2013-01-17 01:42:00,
2013-01-16 20:47:00,46.4,41.2,28.73,SSE,151,0.0,0.0,82,0.00,,-RA,0.12,VWS V14.01,2013-01-17 01:47:00,
2013-01-16 20:52:00,46.2,41.3,28.73,SSE,151,0.0,0.0,83,0.00,,-RA,0.12,VWS V14.01,2013-01-17 01:52:00,
2013-01-16 20:57:00,46.2,41.3,28.73,SSE,151,0.0,0.0,83,0.00,,-RA,0.12,VWS V14.01,2013-01-17 01:57:00,
2013-01-16 21:02:00,46.2,41.3,28.73,SSE,151,0.0,0.0,83,0.00,,OVC090,0.12,VWS V14.01,2013-01-17 02:02:00,
2013-01-16 21:07:00,46.2,41.3,28.73,SSE,151,0.0,0.0,83,0.00,,OVC090,0.12,VWS V14.01,2013-01-17 02:07:00,
2013-01-16 21:12:00,46.2,41.7,28.73,SSE,151,0.0,0.0,84,0.00,,OVC090,0.12,VWS V14.01,2013-01-17 02:12:00,
2013-01-16 21:17:00,46.0,41.5,28.73,SSE,151,0.0,0.0,84,0.00,,OVC090,0.12,VWS V14.01,2013-01-17 02:17:00,
2013-01-16 21:23:00,46.0,41.5,28.73,SSE,151,0.0,0.0,84,0.00,,OVC090,0.12,VWS V14.01,2013-01-17 02:23:00,
2013-01-16 21:28:00,46.2,41.7,28.73,SSE,151,0.0,0.0,84,0.00,,OVC090,0.12,VWS V14.01,2013-01-17 02:28:00,
2013-01-16 21:33:00,46.2,42.0,28.73,SSE,151,0.0,0.0,85,0.00,,OVC090,0.12,VWS V14.01,2013-01-17 02:33:00,
2013-01-16 21:38:00,46.2,42.0,28.73,SSE,151,0.0,0.0,85,0.00,,OVC090,0.12,VWS V14.01,2013-01-17 02:38:00,
2013-01-16 21:43:00,46.2,42.0,28.73,SSE,151,0.0,0.0,85,0.00,,OVC090,0.12,VWS V14.01,2013-01-17 02:43:00,
2013-01-16 21:48:00,46.2,42.0,28.73,SSE,151,0.0,0.0,85,0.00,,OVC090,0.12,VWS V14.01,2013-01-17 02:48:00,
2013-01-16 21:53:00,46.2,42.0,28.73,SSE,151,0.0,0.0,85,0.00,,OVC090,0.12,VWS V14.01,2013-01-17 02:53:00,
2013-01-16 21:58:00,46.2,42.3,28.73,SSE,151,0.0,0.0,86,0.00,,OVC090,1.34,VWS V14.01,2013-01-17 02:58:00,
2013-01-16 22:03:00,46.4,42.5,28.73,NNE,26,0.0,0.0,86,0.00,,OVC090,0.12,VWS V14.01,2013-01-17 03:03:00,
2013-01-16 22:08:00,46.8,42.5,28.73,NE,39,0.0,0.0,85,0.00,,OVC090,0.12,VWS V14.01,2013-01-17 03:08:00,
2013-01-16 22:13:00,46.9,42.0,28.73,WSW,256,0.0,0.0,83,0.00,,OVC090,0.12,VWS V14.01,2013-01-17 03:13:00,
2013-01-16 22:19:00,47.1,41.6,28.73,WSW,243,0.0,0.0,81,0.00,,OVC090,0.12,VWS V14.01,2013-01-17 03:19:00,
2013-01-16 22:24:00,47.1,41.0,28.73,SSW,200,2.7,2.7,79,0.00,,OVC090,0.12,VWS V14.01,2013-01-17 03:24:00,
2013-01-16 22:29:00,46.9,40.5,28.73,SSW,200,0.0,0.0,78,0.00,,OVC090,0.12,VWS V14.01,2013-01-17 03:29:00,
2013-01-16 22:34:00,47.1,40.6,28.73,SSW,200,0.0,0.0,78,0.00,,OVC090,0.12,VWS V14.01,2013-01-17 03:34:00,
2013-01-16 22:39:00,47.1,40.0,28.73,SSW,200,0.0,0.0,76,0.00,,OVC090,0.12,VWS V14.01,2013-01-17 03:39:00,
2013-01-16 22:44:00,47.1,40.0,28.73,SSW,200,0.0,0.0,76,0.00,,OVC090,0.12,VWS V14.01,2013-01-17 03:44:00,
2013-01-16 22:49:00,46.9,39.8,28.70,SSW,200,0.0,0.0,76,0.00,,OVC090,0.12,VWS V14.01,2013-01-17 03:49:00,
2013-01-16 22:54:00,47.1,40.0,28.70,SSW,200,0.0,0.0,76,0.00,,OVC090,0.12,VWS V14.01,2013-01-17 03:54:00,
2013-01-16 22:59:00,47.5,38.6,28.70,NE,39,0.0,0.0,71,0.00,,OVC090,0.12,VWS V14.01,2013-01-17 03:59:00,